LEMUR-2-JIN-LUEN (43182 NORAD) Tracking and Keplerian Element Data

This shows tracking and keplerian element data for the satellite.

Feedback or suggestion? Click here.




ElementValue
Catalog43182
NameLEMUR-2-JIN-LUEN
Epoch Orbit38388
Epoch Day34.67677765
Epoch Year2025
RAAN304.3153
Inclination97.5688
Eccentricity0.0007132
Argument of Perigee272.1552
Mean Anonmoly87.887
Mean Motion15.2661108
Decay Rate0.00033346
L11 43182U 18014C 25034.67677765 .00033346 00000+0 12708-2 0 9995
L22 43182 97.5688 304.3153 0007132 272.1552 87.8870 15.26611080383887



Live tracking and technical data element details for LEMUR-2-JIN-LUEN (NORAD 43182). LEMUR-2-JIN-LUEN can be tracked NOW for your location showing map with azimuth and elevation plus other details from your city location.







IsCatalogInMostPopularTable: catalog: 43182, numindb: 570
Update: records affected: 1



GetName: 43182 LEMUR-2-JIN-LUEN

Hit Count: updated at: Sat, 24 May 2025 15:48:24 GMT